This is the latest recevied weather packets stored in our database for station/object KY4JDC. If no packets are shown the sender has not sent any weather packets the latest 1 day(s).
| Time | Temp. | Humidity | Pressure | Rain* | Wind** | Luminosity | Snow |
|---|---|---|---|---|---|---|---|
| 1777974980 | 17.22° C | 63% | 1010 hPa | 0 mm | 0.45 m/s, 171° | 0 W/m² | - |
| 1777974677 | 17.22° C | 63% | 1010.3 hPa | 0 mm | 0.45 m/s, 138° | 0 W/m² | - |
| 1777974374 | 17.22° C | 63% | 1010.3 hPa | 0 mm | 0 m/s | 0 W/m² | - |
| 1777974070 | 17.22° C | 63% | 1010.2 hPa | 0 mm | 0.45 m/s, 122° | 0 W/m² | - |
| 1777973766 | 17.22° C | 63% | 1010.2 hPa | 0 mm | 0 m/s | 0 W/m² | - |
| 1777973464 | 17.78° C | 62% | 1010.1 hPa | 0 mm | 0 m/s | 0 W/m² | - |
| 1777973161 | 17.78° C | 62% | 1010.2 hPa | 0 mm | 0.45 m/s, 72° | 0 W/m² | - |
| 1777972860 | 17.78° C | 62% | 1010.2 hPa | 0 mm | 0 m/s | 0 W/m² | - |
| 1777972556 | 17.78° C | 61% | 1010.3 hPa | 0 mm | 0 m/s | 0 W/m² | - |
| 1777972254 | 17.78° C | 61% | 1010.2 hPa | 0 mm | 0.45 m/s, 124° | 0 W/m² | - |
| 1777971952 | 17.78° C | 61% | 1010.3 hPa | 0 mm | 0.89 m/s, 162° | 0 W/m² | - |
| 1777971650 | 17.78° C | 61% | 1010.4 hPa | 0 mm | 0 m/s | 0 W/m² | - |
| 1777971347 | 17.78° C | 61% | 1010.4 hPa | 0 mm | 0.45 m/s, 137° | 0 W/m² | - |
| 1777971045 | 17.78° C | 61% | 1010.3 hPa | 0 mm | 0 m/s | 0 W/m² | - |
| 1777970743 | 17.78° C | 61% | 1010.6 hPa | 0 mm | 0 m/s | 0 W/m² | - |
| 1777970441 | 17.78° C | 61% | 1010.5 hPa | 0 mm | 0.89 m/s, 286° | 0 W/m² | - |
| 1777970138 | 17.78° C | 60% | 1010.4 hPa | 0 mm | 0.45 m/s, 140° | 0 W/m² | - |
| 1777969834 | 17.78° C | 60% | 1010.4 hPa | 0 mm | 0.45 m/s, 134° | 0 W/m² | - |
| 1777969530 | 17.78° C | 60% | 1010.3 hPa | 0 mm | 0.45 m/s, 118° | 0 W/m² | - |
| 1777969227 | 17.78° C | 60% | 1010.3 hPa | 0 mm | 0.45 m/s, 195° | 0 W/m² | - |
| 1777968924 | 17.78° C | 60% | 1010.3 hPa | 0 mm | 0 m/s | 0 W/m² | - |
| 1777968621 | 17.78° C | 60% | 1010.1 hPa | 0 mm | 0.45 m/s, 131° | 0 W/m² | - |
| 1777968317 | 18.33° C | 59% | 1010 hPa | 0 mm | 0.45 m/s, 133° | 0 W/m² | - |
| 1777968014 | 18.33° C | 59% | 1010.4 hPa | 0 mm | 0.45 m/s, 164° | 0 W/m² | - |
| 1777967709 | 18.33° C | 59% | 1010.3 hPa | 0 mm | 0.45 m/s, 127° | 0 W/m² | - |
* Rain latest hour (hover to see other rain measurements)
** Current wind speed in m/s (hover to see current wind gust speed)